Regional Weather Roundup
Issued by NWS Cleveland, OH

Home | Current Version | Previous Version | Graphics & Text | Print | Product List | Glossary On
Versions: 1 2 3 4 5 6 7 8 9 10 11 12 13 14 15 16 17 18 19 20 21 22 23 24 25 26 27 28 29 30 31 32 33 34 35 36 37 38 39 40 41 42 43 44 45 46 47 48 49 50
000
ASUS41 KCLE 181110
RWRCLE
OHIO REGIONAL WEATHER ROUNDUP
NATIONAL WEATHER SERVICE CLEVELAND, OH
700 AM EDT THU SEP 18 2014

NOTE: "FAIR" INDICATES FEW OR NO CLOUDS BELOW 12,000 FEET WITH NO
SIGNIFICANT WEATHER AND/OR OBSTRUCTIONS TO VISIBILITY.

OHZ001>008-015>018-024>027-034-035-043-044-181200-
   NORTHWEST OHIO

CITY           SKY/WX    TMP DP  RH WIND       PRES   REMARKS
DEFIANCE       CLEAR     45  41  86 CALM      30.08R
FINDLAY        CLEAR     46  44  93 CALM      30.06R FOG
TOLEDO EXPRESS CLEAR     44  42  93 CALM      30.07R
TOLEDO EXEC    CLEAR     47  43  86 NW5       30.08R
LIMA           CLEAR     46  44  93 CALM      30.06R FOG
$$

OHZ009>014-019>023-028>033-038-089-181200-
   NORTHEAST OHIO

CITY           SKY/WX    TMP DP  RH WIND       PRES   REMARKS
CLE-HOPKINS    PTCLDY    50  47  89 S3        30.08R
CLE-LAKEFRONT  MOCLDY    54  48  80 S6        30.04R
CUY CO. ARPT   PTCLDY    48  48 100 CALM      30.06
LORAIN-ELYRIA  MOCLDY    52  47  83 SW3       30.07R HAZE
ASHTABULA      PTCLDY    42  41  96 CALM      30.06R FOG
AKRON-CANTON   PTCLDY    48  45  89 CALM      30.05S FOG
WOOSTER        CLEAR     44  41  89 CALM      30.07R FOG
MANSFIELD      PTCLDY    48  47  96 CALM      30.06R
YOUNGSTOWN     FOG       45  45 100 CALM      30.05R VSB 1/4
$$

OHZ042-051>053-060>062-070>072-077>081-181200-
  SOUTHWEST OHIO

CITY           SKY/WX    TMP DP  RH WIND       PRES   REMARKS
CINC-COVINGTON CLEAR     53  48  83 CALM      30.04R
CINC-LUNKEN    PTCLDY    47  47 100 CALM      30.06R
HAMILTON       CLEAR     45  44  97 CALM      30.06R
DAYTON         PTCLDY    48  46  93 CALM      30.06R
WRIGHT-PAT AFB CLEAR     47  45  95 CALM      30.05S FOG
DAYTON GENERAL CLEAR     49  46  90 NE8       30.04S
WILMINGTON     CLEAR     46  43  89 NE6       30.04S FOG
$$

OHZ036-037-039>041-045>050-054>059-063>069-073>076-082>088-181200-
  CENTRAL AND SOUTHEAST OHIO

CITY           SKY/WX    TMP DP  RH WIND       PRES   REMARKS
COLUMBUS       PTCLDY    52  47  83 N5        30.04S
OSU AIRPORT    CLEAR     47  45  93 CALM      30.05S FOG
BOLTON FIELD   CLEAR     46  46  97 NW3       30.05S
RICKENBACK AFB CLEAR     49  46  92 N5        30.04S
NEWARK         PTCLDY    47  45  93 CALM      30.05S FOG
MARION         PTCLDY    45  43  93 CALM      30.07R FOG
LANCASTER      CLEAR     45  43  93 CALM      30.05S FOG
ZANESVILLE     MOCLDY    49  46  90 N3        30.05R
NEW PHILLY     MOCLDY    49  48  97 NW3       30.06R
$$


USA.gov is the U.S. government's official web portal to all federal, state and local government web resources and services.